Regional Weather Roundup
Issued by NWS Albany, NY

Home | Current Version | Previous Version | Text Only | Print | Product List | Glossary On
Versions: 1 2 3 4 5 6 7 8 9 10 11 12 13 14 15 16 17 18 19 20 21 22 23 24 25 26 27 28 29 30 31 32 33 34 35 36 37 38 39 40 41 42 43 44 45 46 47 48 49 50
000
ASUS41 KALY 282210
RWRALY

NEW YORK STATE HOURLY WEATHER ROUNDUP
NATIONAL WEATHER SERVICE ALBANY NY
600 PM EDT THU AUG 28 2014

NOTE: "FAIR" INDICATES FEW OR NO CLOUDS BELOW 12,000 FEET WITH NO
SIGNIFICANT WEATHER AND/OR NO OBSTRUCTIONS TO VISIBILITY.

NYZ032-033-038>043-046>054-057>066-NYZ062>081-282300-
EAST


CITY           SKY/WX    TMP DP  RH WIND       PRES   REMARKS
ALBANY         PTSUNNY   70  50  49 NW15      29.95R
GLENS FALLS    CLOUDY    70  51  51 N10       29.94R
POUGHKEEPSIE   PTSUNNY   76  48  37 NW10      29.92R
MONTGOMERY     MOSUNNY   76  50  40 NW13      29.94R
WHITE PLAINS   MOSUNNY   74  49  41 NW12      29.92R
ISLIP          MOSUNNY   78  53  41 N10G20    29.89R
NEW YORK CITY  MOSUNNY   79  50  36 N12       29.91R
CENTRAL PARK   SUNNY     78  48  34 VRB6G16   29.95R
$$

NYZ005>009-017-018-044>046-055-056-282300-
CENTRAL


CITY           SKY/WX    TMP DP  RH WIND       PRES   REMARKS
FULTON         CLOUDY    68  53  58 W12G20    30.05R
SYRACUSE       PTSUNNY   69  51  52 NW10      30.05R
ROME           CLOUDY    64  53  67 NW12      30.04R
ELMIRA         SUNNY     69  48  47 N9G18     30.06R
BINGHAMTON     CLOUDY    61  48  62 NW8       30.06R
MONTICELLO     CLOUDY    68  48  49 NW12G20   30.01R
$$

NYZ026>034-041>043-282300-
NORTH


CITY           SKY/WX    TMP DP  RH WIND       PRES   REMARKS
WATERTOWN      CLOUDY    69  47  45 NW8       30.03R
FORT DRUM      NOT AVBL
MASSENA        CLOUDY    66  50  56 NW9       30.01R
SARANAC LAKE   CLOUDY    59  48  67 N8        30.00R
PLATTSBURGH    CLOUDY    66  49  54 N13G21    29.96R
$$

NYZ001>004-010>016-019>021-282300-
WEST


CITY           SKY/WX    TMP DP  RH WIND       PRES   REMARKS
NIAGARA FALLS  MOSUNNY   70  45  40 NW9       30.09R
BUFFALO        SUNNY     71  44  37 N10       30.09S
DUNKIRK        SUNNY     68  49  50 W13       30.10F
JAMESTOWN      SUNNY     63  48  59 NW10      30.12F
WELLSVILLE     MOSUNNY   65  45  48 N8        30.12R
ROCHESTER      MOSUNNY   69  47  45 NW10      30.08R
PENN YAN       MOSUNNY   66  48  52 N7        30.08S
$$

             KEY
       WCI = WIND CHILL INDEX
       VSB = VISIBILITY
       HX  = HEAT INDEX
$$


USA.gov is the U.S. government's official web portal to all federal, state and local government web resources and services.